FW9399 Weather Reports


time (UTC)temp
C
wind
direction
speed
KPH
gust
KPH
rain 1hr
cm
rain 24hr
cm
rain mn
cm
humidity
%
barometer
mb
20260506145056 15 0.0 0.0 0.00 0.74 0.15 76 1013.0
20260506144025 14 0.0 0.0 0.00 0.74 0.15 73 1013.1
20260506143054 15 0.0 0.0 0.00 0.74 0.15 71 1013.1
20260506142124 16 0.0 0.0 0.00 0.74 0.15 70 1013.2
20260506141053 16 0.0 0.0 0.03 0.74 0.15 71 1013.1
20260506140042 16 302 1.6 4.8 0.05 0.74 0.15 72 1013.2
20260506135052 15 323 0.0 1.6 0.08 0.74 0.15 72 1013.2
20260506134021 15 339 3.2 6.4 0.08 0.74 0.15 72 1013.2
20260506133050 14 342 1.6 4.8 0.08 0.74 0.15 75 1013.3
20260506132049 13 335 1.6 4.8 0.10 0.74 0.15 77 1013.3
20260506131049 13 317 4.8 8.0 0.08 0.71 0.13 75 1013.5
20260506130048 15 336 3.2 8.0 0.05 0.69 0.10 74 1013.4
20260506125157 15 335 1.6 4.8 0.05 0.66 0.08 75 1013.2
20260506124046 15 325 1.6 4.8 0.05 0.66 0.08 76 1013.4
20260506123046 14 315 0.0 1.6 0.05 0.66 0.08 75 1013.4
20260506122045 14 0.0 0.0 0.03 0.64 0.05 75 1013.5
20260506121314 14 0.0 0.0 0.03 0.64 0.05 76 1013.5
20260506120044 14 0.0 0.0 0.03 0.64 0.05 75 1013.5
20260506115103 14 0.0 0.0 0.00 0.61 0.03 70 1013.5
20260506114112 15 0.0 0.0 0.00 0.61 0.03 68 1013.5
20260506113041 15 0.0 0.0 0.00 0.61 0.03 66 1013.6
20260506112141 15 0.0 0.0 0.00 0.61 0.03 70 1013.6
20260506111110 15 0.0 0.0 0.00 0.61 0.03 69 1013.6
20260506110039 15 0.0 0.0 0.00 0.61 0.03 68 1013.7
20260506105139 16 0.0 0.0 0.00 0.61 0.03 67 1013.8
20260506104038 15 0.0 0.0 0.00 0.61 0.03 72 1013.8
20260506103137 14 0.0 0.0 0.00 0.61 0.03 71 1013.8
20260506102107 14 0.0 0.0 0.00 0.61 0.03 70 1013.8
20260506101036 15 0.0 0.0 0.00 0.61 0.03 72 1013.8
20260506100035 15 0.0 0.0 0.00 0.61 0.03 74 1013.9
20260506095035 15 0.0 0.0 0.00 0.61 0.03 72 1013.8
20260506094034 15 0.0 0.0 0.00 0.61 0.03 73 1013.8
20260506093103 15 0.0 0.0 0.00 0.61 0.03 75 1013.7
20260506092032 14 0.0 0.0 0.00 0.61 0.03 74 1013.7
20260506091102 15 0.0 0.0 0.00 0.61 0.03 73 1013.7
20260506090031 15 0.0 0.0 0.00 0.61 0.03 76 1013.7
20260506085030 13 0.0 0.0 0.00 0.61 0.03 79 1013.7
20260506084130 12 0.0 0.0 0.00 0.61 0.03 82 1013.6
20260506083049 12 0.0 0.0 0.00 0.61 0.03 82 1013.6
20260506082128 12 0.0 0.0 0.00 0.61 0.03 81 1013.7
20260506081057 11 0.0 0.0 0.00 0.61 0.03 81 1013.7
20260506073025 11 0.0 0.0 0.00 0.61 0.03 84 1013.6
20260506072024 11 0.0 0.0 0.00 0.61 0.03 85 1013.7
20260506071143 10 0.0 0.0 0.00 0.61 0.03 87 1013.6
20260506062050 10 0.0 0.0 0.00 0.61 0.03 88 1013.4
20260506061039 10 0.0 0.0 0.00 0.61 0.03 89 1013.4
20260506051045 10 0.0 0.0 0.00 0.61 0.03 88 1012.8
20260506050116 10 0.0 0.0 0.00 0.61 0.03 89 1012.7
20260506044043 10 0.0 0.0 0.00 0.61 0.03 89 1012.7
20260506043142 9 0.0 0.0 0.00 0.61 0.03 89 1012.7
20260506042041 9 0.0 0.0 0.00 0.61 0.03 89 1012.6
20260506041040 9 0.0 0.0 0.00 0.61 0.03 89 1012.6
20260506040130 9 0.0 0.0 0.00 0.61 0.03 89 1012.7
20260506035139 9 0.0 0.0 0.00 0.61 0.03 89 1012.7
20260506034058 9 0.0 0.0 0.00 0.61 0.03 89 1012.7
20260506033308 9 0.0 0.0 0.00 0.61 0.03 89 1012.7
20260506031537 9 0.0 0.0 0.00 0.61 0.03 88 1012.7
20260506030606 9 0.0 0.0 0.00 0.61 0.03 88 1012.7
20260506025535 9 0.0 0.0 0.00 0.61 0.03 88 1012.7
20260506024535 9 0.0 0.0 0.00 0.61 0.03 88 1012.7
20260506023534 9 0.0 0.0 0.00 0.61 0.03 88 1012.6
20260506022603 9 0.0 0.0 0.00 0.61 0.03 88 1012.7
20260506021603 9 315 1.6 1.6 0.00 0.61 0.03 88 1012.6
20260506020532 9 0.0 0.0 0.00 0.61 0.03 89 1012.6
20260506015651 9 315 6.4 12.9 0.00 0.61 0.03 89 1012.7
20260506014601 9 310 6.4 16.1 0.00 0.61 0.03 89 1012.6
20260506013531 9 289 3.2 8.0 0.00 0.61 0.03 88 1012.8
20260506012529 10 315 6.4 8.0 0.00 0.61 0.03 89 1012.7
20260506011558 10 0.0 0.0 0.03 0.61 0.03 88 1012.8
20260506010628 10 0.0 0.0 0.03 0.61 0.03 89 1012.8
20260506005557 10 0.0 0.0 0.03 0.61 0.03 89 1012.9
20260506004547 10 0.0 0.0 0.03 0.61 0.03 89 1013.0
20260506003556 10 0.0 0.0 0.03 0.61 0.03 89 1013.0
20260506002555 10 0.0 0.0 0.03 0.61 0.03 88 1013.1
20260506001555 10 0.0 0.0 0.00 0.58 0.00 89 1013.1
20260506000554 10 267 11.3 16.1 0.00 0.58 0.00 89 1013.2
20260505235523 10 260 8.0 16.1 0.00 0.58 0.00 88 1013.3
20260505234552 10 257 6.4 11.3 0.00 0.58 0.00 88 1013.4
20260505233651 10 266 9.7 17.7 0.00 0.58 0.00 88 1013.3
20260505232551 10 270 9.7 11.3 0.00 0.58 0.00 88 1013.3
20260505231550 10 254 8.0 11.3 0.00 0.58 0.00 88 1013.3
20260505230619 11 248 6.4 11.3 0.00 0.58 0.00 88 1013.4
20260505225549 11 270 9.7 11.3 0.00 0.58 0.00 88 1013.4
20260505224618 11 276 6.4 11.3 0.00 0.58 0.00 88 1013.4
20260505223517 11 0.0 0.0 0.00 0.58 0.00 88 1013.4
20260505222607 11 0.0 0.0 0.00 0.58 0.00 88 1013.5
20260505221615 11 0.0 0.0 0.00 0.61 0.00 87 1013.6
20260505220545 11 0.0 0.0 0.00 0.61 0.00 86 1013.8
20260505215544 11 0.0 0.0 0.00 0.61 0.61 86 1013.9
20260505214604 11 0.0 0.0 0.00 0.61 0.61 85 1013.9
20260505213813 11 0.0 0.0 0.00 0.61 0.61 85 1013.9
20260505212542 11 203 3.2 4.8 0.00 0.61 0.61 85 1014.1
20260505211601 11 180 1.6 4.8 0.00 0.61 0.61 85 1014.2
20260505210611 11 180 0.0 4.8 0.00 0.61 0.61 85 1014.1
20260505205540 11 180 0.0 1.6 0.00 0.61 0.61 85 1014.2
20260505204539 11 180 1.6 1.6 0.00 0.61 0.61 85 1014.1
20260505203539 11 203 1.6 1.6 0.00 0.61 0.61 85 1014.0
20260505202538 11 199 3.2 4.8 0.00 0.61 0.61 85 1014.0
20260505201607 11 203 0.0 1.6 0.00 0.61 0.61 84 1013.8
20260505200607 11 203 1.6 1.6 0.00 0.61 0.61 84 1013.7
20260505195606 11 254 0.0 1.6 0.00 0.64 0.61 84 1013.6
20260505194535 11 270 3.2 6.4 0.00 0.64 0.61 84 1013.5
20260505193534 11 261 3.2 6.4 0.00 0.64 0.61 83 1013.5
20260505192534 11 241 3.2 6.4 0.00 0.64 0.61 83 1013.5
20260505191553 11 0.0 0.0 0.00 0.64 0.61 83 1013.4
20260505190552 12 248 1.6 4.8 0.00 0.66 0.61 82 1013.6
20260505185531 12 243 1.6 4.8 0.00 0.69 0.61 82 1013.6
20260505184531 12 267 1.6 4.8 0.00 0.71 0.61 82 1013.5
20260505183530 12 295 0.0 4.8 0.00 0.76 0.61 82 1013.5
20260505182529 12 45 0.0 1.6 0.00 0.91 0.61 82 1013.4
20260505181528 12 45 0.0 1.6 0.00 0.91 0.61 82 1013.2
20260505180528 11 45 0.0 1.6 0.03 0.91 0.61 82 1013.2
20260505175527 11 348 1.6 6.4 0.03 0.94 0.61 82 1013.3
20260505174616 11 320 1.6 6.4 0.05 0.94 0.61 82 1013.4
20260505173525 11 315 4.8 11.3 0.05 0.94 0.61 83 1013.4
20260505172524 11 309 4.8 12.9 0.08 0.94 0.61 84 1013.4
20260505171524 11 296 8.0 16.1 0.13 0.94 0.61 85 1013.5
20260505170553 11 296 3.2 8.0 0.15 0.97 0.58 85 1013.5
20260505165612 12 307 8.0 16.1 0.20 1.04 0.58 86 1013.4
20260505164522 11 300 9.7 17.7 0.28 1.07 0.56 87 1013.2
20260505163541 11 315 11.3 22.5 0.53 1.09 0.56 87 1013.2
20260505162520 11 307 12.9 29.0 0.51 1.17 0.53 86 1013.2
20260505161550 11 289 12.9 24.1 0.46 1.19 0.48 86 1013.1
20260505160549 11 279 12.9 24.1 0.41 1.14 0.43 85 1013.0
20260505152546 17 0.0 0.0 0.00 0.71 0.03 64 1011.6
20260505151545 17 0.0 0.0 0.00 0.71 0.03 62 1011.4
20260505150614 17 0.0 0.0 0.00 0.71 0.03 61 1011.4